SHT22A EGLL-EGJB

Flight info

Callsign SHT22A
Flight time 0h 28m
Altitude 22000
Route GASGU N514 EVTES/N0395F210 N621 SAM/N0389F200 N63 LELNA
Aircraft A319/M-SDE3FGHIRWY/LB1

Departure

Time 2026-04-26 02:05
Airport London Heathrow Airport (EGLL)

Arrival

Time 2026-04-26 02:33
Airport Guernsey Airport (EGJB)
Time Latitude Longitude Altitude Speed Heading
2026-04-26 01:51 51.46927 -0.48718 89 ft 0 kts 360°
2026-04-26 01:52 51.46928 -0.48718 89 ft 0 kts 360°
2026-04-26 01:55 51.46927 -0.48718 87 ft 0 kts 360°
2026-04-26 01:59 51.46904 -0.48717 88 ft 7 kts 360°
2026-04-26 02:00 51.46885 -0.48670 87 ft 3 kts 266°
2026-04-26 02:00 51.46885 -0.48668 87 ft 0 kts 266°
2026-04-26 02:01 51.46885 -0.48669 87 ft 0 kts 266°
2026-04-26 02:01 51.46885 -0.48679 89 ft 2 kts 266°
2026-04-26 02:02 51.46882 -0.48711 87 ft 7 kts 256°
2026-04-26 02:02 51.46879 -0.48723 87 ft 8 kts 246°
2026-04-26 02:02 51.46841 -0.48756 87 ft 13 kts 183°
2026-04-26 02:02 51.46812 -0.48756 87 ft 14 kts 178°
2026-04-26 02:03 51.46738 -0.48751 87 ft 16 kts 180°
2026-04-26 02:03 51.46611 -0.48759 87 ft 19 kts 197°
2026-04-26 02:04 51.46491 -0.48741 88 ft 20 kts 122°
2026-04-26 02:04 51.46479 -0.48450 89 ft 50 kts 89°
2026-04-26 02:04 51.46481 -0.47328 88 ft 141 kts 90°
2026-04-26 02:04 51.46483 -0.46231 357 ft 157 kts 89°
2026-04-26 02:05 51.46496 -0.43680 1190 ft 183 kts 89°
2026-04-26 02:05 51.46496 -0.42272 1411 ft 198 kts 94°
2026-04-26 02:05 51.45858 -0.39598 1898 ft 230 kts 121°
2026-04-26 02:05 51.45014 -0.37571 2497 ft 248 kts 126°
2026-04-26 02:06 51.43947 -0.35292 3517 ft 255 kts 129°
2026-04-26 02:06 51.42564 -0.33505 4510 ft 263 kts 153°
2026-04-26 02:06 51.40770 -0.32845 5498 ft 270 kts 181°
2026-04-26 02:06 51.39626 -0.33157 6099 ft 274 kts 199°
2026-04-26 02:07 51.38004 -0.34830 7092 ft 278 kts 228°
2026-04-26 02:07 51.37145 -0.36711 7837 ft 279 kts 237°
2026-04-26 02:07 51.36074 -0.39303 8833 ft 281 kts 237°
2026-04-26 02:07 51.34857 -0.42248 9847 ft 294 kts 237°
2026-04-26 02:08 51.33808 -0.44784 10262 ft 315 kts 237°
2026-04-26 02:08 51.32545 -0.47820 10608 ft 340 kts 237°
2026-04-26 02:08 51.31188 -0.51068 10922 ft 362 kts 237°
2026-04-26 02:08 51.29759 -0.54466 11562 ft 373 kts 236°
2026-04-26 02:09 51.28290 -0.57947 11887 ft 392 kts 236°
2026-04-26 02:09 51.26740 -0.61601 12591 ft 400 kts 236°
2026-04-26 02:09 51.25170 -0.65309 13425 ft 405 kts 236°
2026-04-26 02:09 51.23620 -0.68968 14242 ft 410 kts 236°
2026-04-26 02:10 51.21998 -0.72804 14986 ft 414 kts 236°
2026-04-26 02:10 51.20373 -0.76638 15700 ft 419 kts 236°
2026-04-26 02:10 51.18722 -0.80515 16398 ft 423 kts 236°
2026-04-26 02:10 51.17070 -0.84384 17060 ft 428 kts 237°
2026-04-26 02:11 51.15252 -0.88649 17755 ft 432 kts 237°
2026-04-26 02:11 51.13504 -0.92759 18390 ft 437 kts 237°
2026-04-26 02:11 51.11881 -0.96571 18896 ft 441 kts 237°
2026-04-26 02:11 51.10173 -1.00576 19419 ft 443 kts 237°
2026-04-26 02:12 51.08475 -1.04537 19930 ft 446 kts 237°
2026-04-26 02:12 51.06666 -1.08746 20458 ft 448 kts 237°
2026-04-26 02:12 51.04905 -1.12838 20941 ft 449 kts 237°
2026-04-26 02:12 51.03130 -1.16956 21382 ft 451 kts 237°
2026-04-26 02:13 51.01349 -1.21082 21784 ft 453 kts 237°
2026-04-26 02:13 50.99461 -1.25451 22129 ft 455 kts 237°
2026-04-26 02:13 50.97773 -1.29340 22248 ft 459 kts 236°
2026-04-26 02:13 50.95714 -1.33152 22275 ft 462 kts 225°
2026-04-26 02:14 50.93140 -1.36305 22275 ft 464 kts 213°
2026-04-26 02:14 50.90269 -1.38705 22277 ft 466 kts 208°
2026-04-26 02:14 50.87379 -1.41000 22272 ft 466 kts 208°
2026-04-26 02:14 50.84483 -1.43308 22274 ft 466 kts 208°
2026-04-26 02:15 50.81591 -1.45618 22270 ft 466 kts 208°
2026-04-26 02:15 50.78697 -1.47925 22263 ft 466 kts 208°
2026-04-26 02:15 50.75657 -1.50344 22263 ft 466 kts 208°
2026-04-26 02:15 50.72749 -1.52651 22260 ft 465 kts 208°
2026-04-26 02:16 50.69897 -1.54905 22260 ft 465 kts 208°
2026-04-26 02:16 50.66966 -1.57219 22254 ft 465 kts 208°
2026-04-26 02:16 50.64066 -1.59514 22249 ft 465 kts 208°
2026-04-26 02:16 50.61214 -1.61768 22252 ft 465 kts 208°
2026-04-26 02:17 50.58597 -1.63828 22249 ft 465 kts 208°
2026-04-26 02:17 50.55404 -1.66331 22257 ft 465 kts 208°
2026-04-26 02:17 50.52468 -1.68630 22254 ft 465 kts 208°
2026-04-26 02:17 50.49575 -1.70894 22254 ft 465 kts 208°
2026-04-26 02:18 50.46668 -1.73173 22251 ft 465 kts 208°
2026-04-26 02:18 50.43758 -1.75456 22252 ft 465 kts 208°
2026-04-26 02:18 50.40870 -1.77718 22252 ft 465 kts 208°
2026-04-26 02:18 50.38051 -1.79918 22249 ft 465 kts 208°
2026-04-26 02:19 50.35111 -1.82203 22253 ft 465 kts 208°
2026-04-26 02:19 50.32254 -1.84418 22249 ft 465 kts 208°
2026-04-26 02:19 50.29361 -1.86662 22251 ft 465 kts 208°
2026-04-26 02:19 50.26426 -1.88942 22252 ft 464 kts 208°
2026-04-26 02:20 50.23530 -1.91192 22249 ft 464 kts 208°
2026-04-26 02:20 50.20629 -1.93441 22242 ft 464 kts 208°
2026-04-26 02:20 50.17748 -1.95671 22246 ft 464 kts 208°
2026-04-26 02:20 50.15780 -1.97189 22247 ft 464 kts 208°
2026-04-26 02:21 50.12896 -1.99411 22265 ft 463 kts 208°
2026-04-26 02:21 50.10007 -2.01630 22119 ft 460 kts 208°
2026-04-26 02:21 50.07156 -2.03814 21857 ft 457 kts 208°
2026-04-26 02:21 50.04271 -2.06024 21594 ft 455 kts 208°
2026-04-26 02:22 50.01427 -2.08215 21338 ft 453 kts 209°
2026-04-26 02:22 49.98767 -2.10699 20468 ft 446 kts 217°
2026-04-26 02:22 49.96416 -2.13851 19450 ft 442 kts 227°
2026-04-26 02:22 49.94415 -2.17370 18519 ft 438 kts 230°
2026-04-26 02:23 49.92401 -2.20951 17479 ft 433 kts 229°
2026-04-26 02:23 49.90413 -2.24431 16544 ft 426 kts 229°
2026-04-26 02:23 49.88488 -2.27769 15639 ft 420 kts 228°
2026-04-26 02:23 49.86492 -2.31215 14737 ft 414 kts 228°
2026-04-26 02:24 49.84476 -2.34471 13734 ft 408 kts 220°
2026-04-26 02:24 49.82279 -2.37062 12817 ft 392 kts 217°
2026-04-26 02:24 49.80128 -2.39544 12074 ft 372 kts 217°
2026-04-26 02:24 49.78080 -2.41908 11366 ft 364 kts 217°
2026-04-26 02:25 49.76084 -2.44213 11051 ft 338 kts 217°
2026-04-26 02:25 49.74252 -2.46333 10924 ft 311 kts 217°
2026-04-26 02:25 49.72575 -2.48270 10642 ft 295 kts 217°
2026-04-26 02:25 49.70932 -2.50165 10129 ft 289 kts 216°
2026-04-26 02:26 49.69325 -2.52015 9514 ft 286 kts 216°
2026-04-26 02:26 49.67746 -2.53832 8881 ft 284 kts 217°
2026-04-26 02:26 49.66147 -2.55671 8228 ft 284 kts 217°
2026-04-26 02:26 49.64569 -2.57482 7608 ft 283 kts 217°
2026-04-26 02:27 49.62989 -2.59294 6992 ft 282 kts 217°
2026-04-26 02:27 49.61426 -2.61088 6506 ft 277 kts 217°
2026-04-26 02:27 49.59886 -2.62859 5859 ft 277 kts 217°
2026-04-26 02:27 49.58345 -2.64629 5288 ft 275 kts 217°
2026-04-26 02:28 49.56798 -2.66401 4652 ft 274 kts 217°
2026-04-26 02:28 49.55244 -2.68176 3801 ft 281 kts 217°
2026-04-26 02:28 49.53664 -2.69983 2963 ft 285 kts 217°
2026-04-26 02:28 49.52059 -2.71812 2254 ft 285 kts 216°
2026-04-26 02:29 49.50528 -2.73557 2065 ft 265 kts 216°
2026-04-26 02:29 49.49546 -2.74676 2003 ft 250 kts 216°
2026-04-26 02:29 49.48214 -2.76194 2007 ft 226 kts 216°
2026-04-26 02:29 49.47016 -2.77558 2014 ft 204 kts 216°
2026-04-26 02:30 49.45857 -2.78671 2000 ft 194 kts 196°
2026-04-26 02:30 49.44541 -2.78701 2013 ft 189 kts 160°
2026-04-26 02:30 49.43486 -2.77578 2012 ft 185 kts 126°
2026-04-26 02:30 49.43056 -2.75763 2018 ft 180 kts 91°
2026-04-26 02:31 49.43104 -2.73890 1918 ft 167 kts 87°
2026-04-26 02:31 49.43155 -2.72170 1701 ft 160 kts 87°
2026-04-26 02:31 49.43204 -2.70460 1491 ft 148 kts 87°
2026-04-26 02:31 49.43247 -2.68969 1304 ft 134 kts 87°
2026-04-26 02:32 49.43287 -2.67572 1126 ft 128 kts 87°
2026-04-26 02:32 49.43326 -2.66200 961 ft 126 kts 87°
2026-04-26 02:32 49.43364 -2.64866 790 ft 124 kts 87°
2026-04-26 02:32 49.43401 -2.63547 627 ft 124 kts 87°
2026-04-26 02:33 49.43438 -2.62213 460 ft 123 kts 87°
2026-04-26 02:33 49.43476 -2.60906 328 ft 119 kts 86°
2026-04-26 02:33 49.43509 -2.59838 337 ft 78 kts 87°
2026-04-26 02:33 49.43522 -2.59378 347 ft 0 kts 88°
2026-04-26 02:34 49.43524 -2.59310 348 ft 14 kts 88°
2026-04-26 02:34 49.43460 -2.59198 348 ft 18 kts 174°
2026-04-26 02:34 49.43372 -2.59308 346 ft 21 kts 264°
2026-04-26 02:34 49.43315 -2.59404 344 ft 14 kts 176°
2026-04-26 02:35 49.43293 -2.59402 344 ft 0 kts 176°